Location: *
(40.4000°N, 15.1200°E)
Time: 07:47:10
(UTC+00:00)

SL-4 R/B - Pass Details

Date: 09 April 2020
Orbit: 428 x 666 km, 51.6° (Epoch: 25 May)

Event Time Altitude Azimuth Distance (km) Brightness Sun altitude
Rises 19:03:10 0° 284° (WNW) 2,393 6.9 -17.1°
Reaches altitude 10° 19:05:55 10° 309° (NW) 1,524 5.5 -17.5°
Maximum altitude 19:08:02 15° 347° (NNW) 1,239 4.3 -17.9°
Drops below altitude 10° 19:10:11 10° 26° (NNE) 1,541 4.3 -18.3°
Enters shadow 19:11:15 - 38° (NE) 1,847 4.6 -18.4°
